Time,TemperatureF,DewpointF,PressureIn,WindDirection,WindDirectionDegrees,WindSpeedMPH,WindSpeedGustMPH,Humidity,HourlyPrecipIn,Conditions,Clouds,dailyrainin,SoftwareType,DateUTC
2013-03-21 00:00:00,22.9,12.2,30.05,West,265,0.0,0.0,63,0.00,,,0.00,Wunderground v.1.15,2013-03-21 04:00:00,
2013-03-21 00:01:00,22.8,12.1,30.05,West,265,0.0,0.0,63,0.00,,,0.00,Wunderground v.1.15,2013-03-21 04:01:00,
2013-03-21 00:07:00,22.7,12.3,30.05,West,265,0.0,0.0,64,0.00,,,0.00,Wunderground v.1.15,2013-03-21 04:07:00,
2013-03-21 00:13:00,22.5,12.1,30.05,West,265,0.0,0.0,64,0.00,,,0.00,Wunderground v.1.15,2013-03-21 04:13:00,
2013-03-21 00:14:00,22.5,12.1,30.05,West,265,0.0,0.0,64,0.00,,,0.00,Wunderground v.1.15,2013-03-21 04:14:00,
2013-03-21 00:20:00,22.4,12.1,30.05,West,265,0.0,0.0,64,0.00,,,0.00,Wunderground v.1.15,2013-03-21 04:20:00,
2013-03-21 00:26:00,22.2,12.2,30.05,West,265,0.0,2.0,65,0.00,,,0.00,Wunderground v.1.15,2013-03-21 04:26:00,
2013-03-21 00:31:00,22.1,12.5,30.05,West,265,0.0,0.0,66,0.00,,,0.00,Wunderground v.1.15,2013-03-21 04:31:00,
2013-03-21 00:36:00,22.1,12.1,30.04,West,265,0.0,1.0,65,0.00,,,0.00,Wunderground v.1.15,2013-03-21 04:36:00,
2013-03-21 00:42:00,22.2,12.6,30.04,West,265,0.0,0.0,66,0.00,,,0.00,Wunderground v.1.15,2013-03-21 04:42:00,
2013-03-21 00:47:00,22.2,12.6,30.04,West,265,0.0,0.0,66,0.00,,,0.00,Wunderground v.1.15,2013-03-21 04:47:00,
2013-03-21 00:53:00,22.2,12.9,30.04,West,265,0.0,0.0,67,0.00,,,0.00,Wunderground v.1.15,2013-03-21 04:53:00,
2013-03-21 00:58:00,22.3,14.6,30.04,West,265,0.0,0.0,72,0.00,,,0.00,Wunderground v.1.15,2013-03-21 04:58:00,
2013-03-21 01:04:00,22.4,13.1,30.04,West,265,1.0,2.0,67,0.00,,,0.00,Wunderground v.1.15,2013-03-21 05:04:00,
2013-03-21 01:09:00,22.6,12.9,30.04,West,266,1.0,5.0,66,0.00,,,0.00,Wunderground v.1.15,2013-03-21 05:09:00,
2013-03-21 01:15:00,23.2,13.2,30.04,WSW,255,2.0,6.0,65,0.00,,,0.00,Wunderground v.1.15,2013-03-21 05:15:00,
2013-03-21 01:20:00,23.4,13.4,30.04,West,279,2.0,3.0,65,0.00,,,0.00,Wunderground v.1.15,2013-03-21 05:20:00,
2013-03-21 01:25:00,23.6,13.2,30.03,West,275,2.0,3.0,64,0.00,,,0.00,Wunderground v.1.15,2013-03-21 05:25:00,
2013-03-21 01:31:00,23.7,14.0,30.04,West,272,3.0,4.0,66,0.00,,,0.00,Wunderground v.1.15,2013-03-21 05:31:00,
2013-03-21 01:37:00,23.6,14.9,30.04,WNW,294,3.0,5.0,69,0.00,,,0.00,Wunderground v.1.15,2013-03-21 05:37:00,
2013-03-21 01:42:00,23.5,14.5,30.04,NW,325,6.0,6.0,68,0.00,,,0.00,Wunderground v.1.15,2013-03-21 05:42:00,
2013-03-21 01:47:00,23.4,14.7,30.04,WNW,303,2.0,6.0,69,0.00,,,0.00,Wunderground v.1.15,2013-03-21 05:47:00,
2013-03-21 01:52:00,23.3,14.6,30.03,WNW,288,4.0,10.0,69,0.00,,,0.00,Wunderground v.1.15,2013-03-21 05:52:00,
2013-03-21 01:58:00,23.3,14.3,30.04,NW,309,0.0,10.0,68,0.00,,,0.00,Wunderground v.1.15,2013-03-21 05:58:00,
2013-03-21 02:03:00,23.3,14.6,30.04,NNW,336,2.0,4.0,69,0.00,,,0.00,Wunderground v.1.15,2013-03-21 06:03:00,
2013-03-21 02:08:00,23.3,14.6,30.04,WSW,244,3.0,9.0,69,0.00,,,0.00,Wunderground v.1.15,2013-03-21 06:08:00,
2013-03-21 02:13:00,23.3,15.0,30.04,West,274,4.0,7.0,70,0.00,,,0.00,Wunderground v.1.15,2013-03-21 06:13:00,
2013-03-21 02:18:00,23.1,16.0,30.04,West,261,2.0,9.0,74,0.00,,,0.00,Wunderground v.1.15,2013-03-21 06:18:00,
2013-03-21 02:23:00,22.8,16.1,30.03,West,273,1.0,3.0,75,0.00,,,0.00,Wunderground v.1.15,2013-03-21 06:23:00,
2013-03-21 02:28:00,22.6,16.2,30.03,West,273,2.0,4.0,76,0.00,,,0.00,Wunderground v.1.15,2013-03-21 06:28:00,
2013-03-21 02:33:00,22.5,15.8,30.03,West,265,2.0,5.0,75,0.00,,,0.00,Wunderground v.1.15,2013-03-21 06:33:00,
2013-03-21 02:38:00,22.4,16.0,30.03,NW,305,3.0,5.0,76,0.00,,,0.00,Wunderground v.1.15,2013-03-21 06:38:00,
2013-03-21 02:43:00,22.3,15.6,30.03,NW,304,0.0,2.0,75,0.00,,,0.00,Wunderground v.1.15,2013-03-21 06:43:00,
2013-03-21 02:49:00,22.3,15.9,30.03,NW,304,0.0,2.0,76,0.00,,,0.00,Wunderground v.1.15,2013-03-21 06:49:00,
2013-03-21 02:54:00,22.3,15.6,30.03,WNW,287,1.0,4.0,75,0.00,,,0.00,Wunderground v.1.15,2013-03-21 06:54:00,
2013-03-21 02:59:00,22.5,14.8,30.03,NW,320,0.0,5.0,72,0.00,,,0.00,Wunderground v.1.15,2013-03-21 06:59:00,
2013-03-21 03:04:00,22.6,14.9,30.03,NW,322,1.0,4.0,72,0.00,,,0.00,Wunderground v.1.15,2013-03-21 07:04:00,
2013-03-21 03:09:00,22.7,14.7,30.03,NW,312,2.0,4.0,71,0.00,,,0.00,Wunderground v.1.15,2013-03-21 07:09:00,
2013-03-21 03:14:00,22.9,14.2,30.03,NNE,17,1.0,5.0,69,0.00,,,0.00,Wunderground v.1.15,2013-03-21 07:14:00,
2013-03-21 03:19:00,23.0,13.7,30.03,NW,310,5.0,8.0,67,0.00,,,0.00,Wunderground v.1.15,2013-03-21 07:19:00,
2013-03-21 03:24:00,22.9,13.6,30.03,NW,304,4.0,7.0,67,0.00,,,0.00,Wunderground v.1.15,2013-03-21 07:24:00,
2013-03-21 03:29:00,22.8,13.8,30.03,NW,323,2.0,7.0,68,0.00,,,0.00,Wunderground v.1.15,2013-03-21 07:29:00,
2013-03-21 03:34:00,22.7,13.7,30.02,NNW,330,3.0,7.0,68,0.00,,,0.00,Wunderground v.1.15,2013-03-21 07:34:00,
2013-03-21 03:39:00,22.6,14.0,30.02,West,275,5.0,7.0,69,0.00,,,0.00,Wunderground v.1.15,2013-03-21 07:39:00,
2013-03-21 03:44:00,22.5,13.5,30.02,ENE,58,4.0,8.0,68,0.00,,,0.00,Wunderground v.1.15,2013-03-21 07:44:00,
2013-03-21 03:49:00,22.4,13.1,30.02,NW,317,0.0,8.0,67,0.00,,,0.00,Wunderground v.1.15,2013-03-21 07:49:00,
2013-03-21 03:54:00,22.4,13.1,30.02,NW,313,8.0,9.0,67,0.00,,,0.00,Wunderground v.1.15,2013-03-21 07:54:00,
2013-03-21 03:59:00,22.4,12.4,30.02,North,355,0.0,9.0,65,0.00,,,0.00,Wunderground v.1.15,2013-03-21 07:59:00,
2013-03-21 04:04:00,22.3,12.7,30.02,North,355,1.0,4.0,66,0.00,,,0.00,Wunderground v.1.15,2013-03-21 08:04:00,
2013-03-21 04:09:00,22.2,11.9,30.02,West,280,2.0,8.0,64,0.00,,,0.00,Wunderground v.1.15,2013-03-21 08:09:00,
2013-03-21 04:14:00,22.1,11.8,30.01,West,269,3.0,5.0,64,0.00,,,0.00,Wunderground v.1.15,2013-03-21 08:14:00,
2013-03-21 04:19:00,22.0,12.0,30.01,West,261,1.0,5.0,65,0.00,,,0.00,Wunderground v.1.15,2013-03-21 08:19:00,
2013-03-21 04:24:00,21.7,11.7,30.01,NW,324,1.0,4.0,65,0.00,,,0.00,Wunderground v.1.15,2013-03-21 08:24:00,
2013-03-21 04:29:00,21.6,11.6,30.01,WNW,294,0.0,4.0,65,0.00,,,0.00,Wunderground v.1.15,2013-03-21 08:29:00,
2013-03-21 04:34:00,21.5,11.9,30.01,WNW,292,0.0,3.0,66,0.00,,,0.00,Wunderground v.1.15,2013-03-21 08:34:00,
2013-03-21 04:39:00,21.3,11.7,30.01,NW,320,2.0,5.0,66,0.00,,,0.00,Wunderground v.1.15,2013-03-21 08:39:00,
2013-03-21 04:44:00,21.1,11.5,30.01,NNW,328,0.0,3.0,66,0.00,,,0.00,Wunderground v.1.15,2013-03-21 08:44:00,
2013-03-21 04:49:00,21.0,11.4,30.01,West,275,1.0,4.0,66,0.00,,,0.00,Wunderground v.1.15,2013-03-21 08:49:00,
2013-03-21 04:54:00,20.9,11.7,30.01,NNW,330,1.0,3.0,67,0.00,,,0.00,Wunderground v.1.15,2013-03-21 08:54:00,
2013-03-21 04:59:00,20.7,11.5,30.00,WNW,294,3.0,5.0,67,0.00,,,0.00,Wunderground v.1.15,2013-03-21 08:59:00,
2013-03-21 05:04:00,20.7,11.5,30.00,WSW,248,1.0,4.0,67,0.00,,,0.00,Wunderground v.1.15,2013-03-21 09:04:00,
2013-03-21 05:09:00,20.6,11.7,30.00,WNW,290,2.0,5.0,68,0.00,,,0.00,Wunderground v.1.15,2013-03-21 09:09:00,
2013-03-21 05:14:00,20.6,11.7,30.00,North,360,3.0,5.0,68,0.00,,,0.00,Wunderground v.1.15,2013-03-21 09:14:00,
2013-03-21 05:20:00,20.5,11.6,30.00,WNW,289,2.0,2.0,68,0.00,,,0.00,Wunderground v.1.15,2013-03-21 09:20:00,
2013-03-21 05:25:00,20.4,11.5,29.99,WNW,297,2.0,6.0,68,0.00,,,0.00,Wunderground v.1.15,2013-03-21 09:25:00,
2013-03-21 05:30:00,20.5,11.6,30.00,NNW,329,2.0,2.0,68,0.00,,,0.00,Wunderground v.1.15,2013-03-21 09:30:00,
2013-03-21 05:35:00,20.5,11.6,29.99,West,271,0.0,5.0,68,0.00,,,0.00,Wunderground v.1.15,2013-03-21 09:35:00,
2013-03-21 05:40:00,20.6,11.7,29.99,NW,315,2.0,3.0,68,0.00,,,0.00,Wunderground v.1.15,2013-03-21 09:40:00,
2013-03-21 05:45:00,20.7,11.8,29.99,NW,321,1.0,7.0,68,0.00,,,0.00,Wunderground v.1.15,2013-03-21 09:45:00,
2013-03-21 05:50:00,20.7,11.8,30.00,NW,323,0.0,2.0,68,0.00,,,0.00,Wunderground v.1.15,2013-03-21 09:50:00,
2013-03-21 05:55:00,20.7,12.1,30.00,NW,306,3.0,6.0,69,0.00,,,0.00,Wunderground v.1.15,2013-03-21 09:55:00,
2013-03-21 06:00:00,20.8,12.2,30.00,WNW,284,3.0,6.0,69,0.00,,,0.00,Wunderground v.1.15,2013-03-21 10:00:00,
2013-03-21 06:06:00,20.8,12.2,30.00,West,266,3.0,6.0,69,0.00,,,0.00,Wunderground v.1.15,2013-03-21 10:06:00,
2013-03-21 06:11:00,20.8,12.2,30.00,WNW,300,1.0,2.0,69,0.00,,,0.00,Wunderground v.1.15,2013-03-21 10:11:00,
2013-03-21 06:16:00,20.8,11.9,30.00,NW,308,2.0,6.0,68,0.00,,,0.00,Wunderground v.1.15,2013-03-21 10:16:00,
2013-03-21 06:21:00,20.7,11.8,30.00,NW,308,2.0,4.0,68,0.00,,,0.00,Wunderground v.1.15,2013-03-21 10:21:00,
2013-03-21 06:26:00,20.7,11.5,30.00,West,263,3.0,9.0,67,0.00,,,0.00,Wunderground v.1.15,2013-03-21 10:26:00,
2013-03-21 06:31:00,20.7,11.5,30.00,WNW,282,2.0,3.0,67,0.00,,,0.00,Wunderground v.1.15,2013-03-21 10:31:00,
2013-03-21 06:36:00,20.6,11.7,30.00,West,275,1.0,4.0,68,0.00,,,0.00,Wunderground v.1.15,2013-03-21 10:36:00,
2013-03-21 06:41:00,20.4,11.8,30.00,WNW,286,0.0,2.0,69,0.00,,,0.00,Wunderground v.1.15,2013-03-21 10:41:00,
2013-03-21 06:46:00,20.3,12.1,30.00,WNW,301,1.0,5.0,70,0.00,,,0.00,Wunderground v.1.15,2013-03-21 10:46:00,
2013-03-21 06:51:00,20.1,12.2,30.00,NW,313,4.0,4.0,71,0.00,,,0.00,Wunderground v.1.15,2013-03-21 10:51:00,
2013-03-21 06:56:00,19.9,12.0,30.00,WNW,282,3.0,6.0,71,0.00,,,0.00,Wunderground v.1.15,2013-03-21 10:56:00,
2013-03-21 07:01:00,19.8,11.6,30.00,WNW,296,6.0,7.0,70,0.00,,,0.00,Wunderground v.1.15,2013-03-21 11:01:00,
2013-03-21 07:06:00,19.8,11.6,30.01,NW,316,2.0,7.0,70,0.00,,,0.00,Wunderground v.1.15,2013-03-21 11:06:00,
2013-03-21 07:12:00,19.7,11.5,30.01,NW,317,3.0,6.0,70,0.00,,,0.00,Wunderground v.1.15,2013-03-21 11:12:00,
2013-03-21 07:17:00,19.6,11.7,30.01,NNW,342,3.0,6.0,71,0.00,,,0.00,Wunderground v.1.15,2013-03-21 11:17:00,
2013-03-21 07:22:00,19.6,11.7,30.01,WNW,295,2.0,4.0,71,0.00,,,0.00,Wunderground v.1.15,2013-03-21 11:22:00,
2013-03-21 07:27:00,19.7,12.1,30.01,NW,325,2.0,6.0,72,0.00,,,0.00,Wunderground v.1.15,2013-03-21 11:27:00,
2013-03-21 07:32:00,19.7,12.4,30.01,NW,316,3.0,3.0,73,0.00,,,0.00,Wunderground v.1.15,2013-03-21 11:32:00,
2013-03-21 07:38:00,19.8,12.2,30.02,WNW,302,0.0,7.0,72,0.00,,,0.00,Wunderground v.1.15,2013-03-21 11:38:00,
2013-03-21 07:43:00,19.8,12.2,30.02,WNW,298,1.0,5.0,72,0.00,,,0.00,Wunderground v.1.15,2013-03-21 11:43:00,
2013-03-21 07:48:00,19.8,12.2,30.02,WNW,295,5.0,8.0,72,0.00,,,0.00,Wunderground v.1.15,2013-03-21 11:48:00,
2013-03-21 07:53:00,19.9,12.6,30.02,WNW,294,7.0,8.0,73,0.00,,,0.00,Wunderground v.1.15,2013-03-21 11:53:00,
2013-03-21 07:58:00,19.8,12.8,30.02,NW,307,3.0,9.0,74,0.00,,,0.00,Wunderground v.1.15,2013-03-21 11:58:00,
2013-03-21 08:03:00,19.8,13.2,30.01,NW,322,1.0,3.0,75,0.00,,,0.00,Wunderground v.1.15,2013-03-21 12:03:00,
2013-03-21 08:08:00,19.7,13.4,30.01,West,269,2.0,5.0,76,0.00,,,0.00,Wunderground v.1.15,2013-03-21 12:08:00,
2013-03-21 08:14:00,19.7,13.4,30.02,WNW,302,0.0,4.0,76,0.00,,,0.00,Wunderground v.1.15,2013-03-21 12:14:00,
2013-03-21 08:19:00,19.7,13.4,30.02,WNW,296,3.0,7.0,76,0.00,,,0.00,Wunderground v.1.15,2013-03-21 12:19:00,
2013-03-21 08:24:00,19.7,13.4,30.02,WNW,292,4.0,7.0,76,0.00,,,0.00,Wunderground v.1.15,2013-03-21 12:24:00,
2013-03-21 08:29:00,19.7,13.4,30.03,West,281,3.0,7.0,76,0.00,,,0.00,Wunderground v.1.15,2013-03-21 12:29:00,
2013-03-21 08:34:00,19.7,13.4,30.03,WNW,298,2.0,5.0,76,0.00,,,0.00,Wunderground v.1.15,2013-03-21 12:34:00,
2013-03-21 08:39:00,19.8,13.8,30.03,North,5,1.0,5.0,77,0.00,,,0.00,Wunderground v.1.15,2013-03-21 12:39:00,
2013-03-21 08:44:00,19.9,13.3,30.03,West,259,5.0,7.0,75,0.00,,,0.00,Wunderground v.1.15,2013-03-21 12:44:00,
2013-03-21 08:49:00,19.9,12.6,30.03,WNW,288,2.0,7.0,73,0.00,,,0.00,Wunderground v.1.15,2013-03-21 12:49:00,
2013-03-21 08:54:00,20.0,13.0,30.03,NNW,345,3.0,8.0,74,0.00,,,0.00,Wunderground v.1.15,2013-03-21 12:54:00,
2013-03-21 08:59:00,20.1,12.8,30.03,ENE,76,1.0,8.0,73,0.00,,,0.00,Wunderground v.1.15,2013-03-21 12:59:00,
2013-03-21 09:04:00,20.1,12.8,30.04,NNW,348,5.0,7.0,73,0.00,,,0.00,Wunderground v.1.15,2013-03-21 13:04:00,
2013-03-21 09:09:00,20.0,12.4,30.04,NW,325,4.0,10.0,72,0.00,,,0.00,Wunderground v.1.15,2013-03-21 13:09:00,
2013-03-21 09:14:00,20.0,11.8,30.04,NNW,348,2.0,8.0,70,0.00,,,0.00,Wunderground v.1.15,2013-03-21 13:14:00,
2013-03-21 09:19:00,19.9,12.0,30.05,North,11,3.0,8.0,71,0.00,,,0.00,Wunderground v.1.15,2013-03-21 13:19:00,
2013-03-21 09:24:00,20.1,12.2,30.05,NW,325,2.0,9.0,71,0.00,,,0.00,Wunderground v.1.15,2013-03-21 13:24:00,
2013-03-21 09:29:00,20.1,12.5,30.05,North,9,3.0,9.0,72,0.00,,,0.00,Wunderground v.1.15,2013-03-21 13:29:00,
2013-03-21 09:34:00,20.1,12.5,30.05,WNW,296,5.0,5.0,72,0.00,,,0.00,Wunderground v.1.15,2013-03-21 13:34:00,
2013-03-21 09:39:00,20.2,12.3,30.05,NE,39,3.0,7.0,71,0.00,,,0.00,Wunderground v.1.15,2013-03-21 13:39:00,
2013-03-21 09:44:00,20.4,12.5,30.05,NW,322,3.0,5.0,71,0.00,,,0.00,Wunderground v.1.15,2013-03-21 13:44:00,
2013-03-21 09:49:00,20.6,12.7,30.05,NNE,28,4.0,6.0,71,0.00,,,0.00,Wunderground v.1.15,2013-03-21 13:49:00,
2013-03-21 09:54:00,20.7,13.1,30.05,WNW,295,3.0,5.0,72,0.00,,,0.00,Wunderground v.1.15,2013-03-21 13:54:00,
2013-03-21 09:59:00,20.8,13.2,30.05,NE,49,4.0,6.0,72,0.00,,,0.00,Wunderground v.1.15,2013-03-21 13:59:00,
2013-03-21 10:04:00,20.8,13.5,30.06,NNW,332,0.0,6.0,73,0.00,,,0.00,Wunderground v.1.15,2013-03-21 14:04:00,
2013-03-21 10:10:00,20.9,13.9,30.06,WSW,253,0.0,3.0,74,0.00,,,0.00,Wunderground v.1.15,2013-03-21 14:10:00,
2013-03-21 10:15:00,21.3,14.0,30.06,NW,323,2.0,6.0,73,0.00,,,0.00,Wunderground v.1.15,2013-03-21 14:15:00,
2013-03-21 10:20:00,21.7,13.7,30.06,WNW,296,2.0,3.0,71,0.00,,,0.00,Wunderground v.1.15,2013-03-21 14:20:00,
2013-03-21 10:25:00,21.8,13.8,30.06,WNW,289,4.0,7.0,71,0.00,,,0.00,Wunderground v.1.15,2013-03-21 14:25:00,
2013-03-21 10:30:00,21.9,13.3,30.06,NW,320,6.0,6.0,69,0.00,,,0.00,Wunderground v.1.15,2013-03-21 14:30:00,
2013-03-21 10:35:00,22.0,12.0,30.06,WNW,286,3.0,8.0,65,0.00,,,0.00,Wunderground v.1.15,2013-03-21 14:35:00,
2013-03-21 10:40:00,22.4,12.1,30.06,NW,304,0.0,4.0,64,0.00,,,0.00,Wunderground v.1.15,2013-03-21 14:40:00,
2013-03-21 10:45:00,22.9,11.4,30.06,NNW,346,5.0,9.0,61,0.00,,,0.00,Wunderground v.1.15,2013-03-21 14:45:00,
2013-03-21 10:50:00,22.7,10.5,30.06,NNW,328,3.0,4.0,59,0.00,,,0.00,Wunderground v.1.15,2013-03-21 14:50:00,
2013-03-21 10:56:00,22.7,10.5,30.06,NW,306,3.0,11.0,59,0.00,,,0.00,Wunderground v.1.15,2013-03-21 14:56:00,
2013-03-21 11:01:00,23.3,11.1,30.06,WNW,284,3.0,8.0,59,0.00,,,0.00,Wunderground v.1.15,2013-03-21 15:01:00,
2013-03-21 11:06:00,23.4,10.4,30.07,NNW,331,8.0,8.0,57,0.00,,,0.00,Wunderground v.1.15,2013-03-21 15:06:00,
2013-03-21 11:11:00,23.2,10.2,30.06,WNW,299,2.0,7.0,57,0.00,,,0.00,Wunderground v.1.15,2013-03-21 15:11:00,
2013-03-21 11:17:00,22.9,9.9,30.07,NNE,21,2.0,8.0,57,0.00,,,0.00,Wunderground v.1.15,2013-03-21 15:17:00,
2013-03-21 11:22:00,22.9,9.9,30.07,West,259,4.0,7.0,57,0.00,,,0.00,Wunderground v.1.15,2013-03-21 15:22:00,
2013-03-21 11:27:00,23.0,9.2,30.07,NNE,23,4.0,7.0,55,0.00,,,0.00,Wunderground v.1.15,2013-03-21 15:27:00,
2013-03-21 11:32:00,23.0,9.6,30.06,NNW,332,8.0,8.0,56,0.00,,,0.00,Wunderground v.1.15,2013-03-21 15:32:00,
2013-03-21 11:37:00,23.3,9.1,30.06,NW,309,2.0,8.0,54,0.00,,,0.00,Wunderground v.1.15,2013-03-21 15:37:00,
2013-03-21 11:42:00,23.4,9.2,30.06,West,268,1.0,4.0,54,0.00,,,0.00,Wunderground v.1.15,2013-03-21 15:42:00,
2013-03-21 11:48:00,24.2,9.9,30.07,NW,315,2.0,6.0,54,0.00,,,0.00,Wunderground v.1.15,2013-03-21 15:48:00,
2013-03-21 11:53:00,24.3,9.2,30.07,NW,319,3.0,8.0,52,0.00,,,0.00,Wunderground v.1.15,2013-03-21 15:53:00,
2013-03-21 11:58:00,24.5,8.9,30.07,North,5,2.0,8.0,51,0.00,,,0.00,Wunderground v.1.15,2013-03-21 15:58:00,
2013-03-21 12:03:00,24.3,8.7,30.07,NNE,28,8.0,8.0,51,0.00,,,0.00,Wunderground v.1.15,2013-03-21 16:03:00,
2013-03-21 12:08:00,24.8,11.3,30.07,North,355,0.0,9.0,56,0.00,,,0.00,Wunderground v.1.15,2013-03-21 16:08:00,
2013-03-21 12:13:00,25.4,11.9,30.07,West,259,3.0,7.0,56,0.00,,,0.00,Wunderground v.1.15,2013-03-21 16:13:00,
2013-03-21 12:18:00,25.3,11.0,30.07,ENE,59,5.0,10.0,54,0.00,,,0.00,Wunderground v.1.15,2013-03-21 16:18:00,
2013-03-21 12:23:00,25.2,10.9,30.08,West,272,2.0,5.0,54,0.00,,,0.00,Wunderground v.1.15,2013-03-21 16:23:00,
2013-03-21 12:28:00,25.1,9.0,30.08,NNW,347,6.0,9.0,50,0.00,,,0.00,Wunderground v.1.15,2013-03-21 16:28:00,
2013-03-21 12:33:00,25.0,9.0,30.08,WSW,241,1.0,7.0,50,0.00,,,0.00,Wunderground v.1.15,2013-03-21 16:33:00,
2013-03-21 12:39:00,25.4,10.2,30.07,NE,34,6.0,8.0,52,0.00,,,0.00,Wunderground v.1.15,2013-03-21 16:39:00,
2013-03-21 12:44:00,25.6,10.8,30.08,WNW,296,0.0,9.0,53,0.00,,,0.00,Wunderground v.1.15,2013-03-21 16:44:00,
2013-03-21 12:49:00,25.7,10.5,30.08,North,360,1.0,9.0,52,0.00,,,0.00,Wunderground v.1.15,2013-03-21 16:49:00,
2013-03-21 12:54:00,25.8,10.6,30.08,North,11,5.0,7.0,52,0.00,,,0.00,Wunderground v.1.15,2013-03-21 16:54:00,
2013-03-21 12:59:00,26.2,10.5,30.08,North,355,4.0,7.0,51,0.00,,,0.00,Wunderground v.1.15,2013-03-21 16:59:00,
2013-03-21 13:04:00,26.6,10.9,30.08,NNE,19,2.0,6.0,51,0.00,,,0.00,Wunderground v.1.15,2013-03-21 17:04:00,
2013-03-21 13:09:00,26.9,11.6,30.08,NW,309,2.0,6.0,52,0.00,,,0.00,Wunderground v.1.15,2013-03-21 17:09:00,
2013-03-21 13:14:00,27.5,10.4,30.08,ENE,57,0.0,8.0,48,0.00,,,0.00,Wunderground v.1.15,2013-03-21 17:14:00,
2013-03-21 13:19:00,27.2,10.1,30.08,NW,315,0.0,8.0,48,0.00,,,0.00,Wunderground v.1.15,2013-03-21 17:19:00,
2013-03-21 13:24:00,27.6,13.1,30.07,West,265,5.0,5.0,54,0.00,,,0.00,Wunderground v.1.15,2013-03-21 17:24:00,
2013-03-21 13:29:00,27.5,10.4,30.07,NNE,23,1.0,6.0,48,0.00,,,0.00,Wunderground v.1.15,2013-03-21 17:29:00,
2013-03-21 13:34:00,27.5,10.8,30.07,North,355,1.0,9.0,49,0.00,,,0.00,Wunderground v.1.15,2013-03-21 17:34:00,
2013-03-21 13:40:00,28.3,12.0,30.07,NW,316,2.0,3.0,50,0.00,,,0.00,Wunderground v.1.15,2013-03-21 17:40:00,
2013-03-21 13:45:00,28.2,11.0,30.07,WNW,299,6.0,6.0,48,0.00,,,0.00,Wunderground v.1.15,2013-03-21 17:45:00,
2013-03-21 13:50:00,28.0,10.8,30.07,NNW,340,5.0,7.0,48,0.00,,,0.00,Wunderground v.1.15,2013-03-21 17:50:00,
2013-03-21 13:56:00,28.0,10.8,30.07,NE,53,3.0,7.0,48,0.00,,,0.00,Wunderground v.1.15,2013-03-21 17:56:00,
2013-03-21 14:01:00,28.2,11.9,30.07,NE,39,4.0,5.0,50,0.00,,,0.00,Wunderground v.1.15,2013-03-21 18:01:00,
2013-03-21 14:06:00,28.8,12.9,30.07,WSW,258,7.0,8.0,51,0.00,,,0.00,Wunderground v.1.15,2013-03-21 18:06:00,
2013-03-21 14:11:00,29.2,13.3,30.07,WNW,288,3.0,5.0,51,0.00,,,0.00,Wunderground v.1.15,2013-03-21 18:11:00,
2013-03-21 14:16:00,29.3,11.5,30.07,WSW,242,2.0,5.0,47,0.00,,,0.00,Wunderground v.1.15,2013-03-21 18:16:00,
2013-03-21 14:21:00,29.4,12.1,30.07,NNW,339,0.0,4.0,48,0.00,,,0.00,Wunderground v.1.15,2013-03-21 18:21:00,
2013-03-21 14:26:00,29.2,11.4,30.07,NNE,16,5.0,9.0,47,0.00,,,0.00,Wunderground v.1.15,2013-03-21 18:26:00,
2013-03-21 14:32:00,29.6,12.3,30.06,NW,325,7.0,7.0,48,0.00,,,0.00,Wunderground v.1.15,2013-03-21 18:32:00,
2013-03-21 14:37:00,29.2,11.0,30.07,NW,314,6.0,9.0,46,0.00,,,0.00,Wunderground v.1.15,2013-03-21 18:37:00,
2013-03-21 14:42:00,29.6,13.7,30.07,WNW,294,5.0,9.0,51,0.00,,,0.00,Wunderground v.1.15,2013-03-21 18:42:00,
2013-03-21 14:48:00,29.6,10.8,30.06,North,360,3.0,9.0,45,0.00,,,0.00,Wunderground v.1.15,2013-03-21 18:48:00,
2013-03-21 14:53:00,30.0,13.6,30.06,WNW,292,4.0,8.0,50,0.00,,,0.00,Wunderground v.1.15,2013-03-21 18:53:00,
2013-03-21 14:58:00,30.0,12.2,30.06,NW,309,1.0,8.0,47,0.00,,,0.00,Wunderground v.1.15,2013-03-21 18:58:00,
2013-03-21 15:03:00,29.9,11.6,30.06,ENE,58,3.0,8.0,46,0.00,,,0.00,Wunderground v.1.15,2013-03-21 19:03:00,
2013-03-21 15:08:00,30.7,11.8,30.06,West,263,1.0,8.0,45,0.00,,,0.00,Wunderground v.1.15,2013-03-21 19:08:00,
2013-03-21 15:13:00,30.4,13.0,30.06,NE,34,3.0,7.0,48,0.00,,,0.00,Wunderground v.1.15,2013-03-21 19:13:00,
2013-03-21 15:21:00,29.8,12.0,30.06,NNE,32,3.0,3.0,47,0.00,,,0.00,Wunderground v.1.15,2013-03-21 19:21:00,
2013-03-21 15:26:00,30.1,12.3,30.06,West,267,0.0,7.0,47,0.00,,,0.00,Wunderground v.1.15,2013-03-21 19:26:00,
2013-03-21 15:31:00,30.4,13.0,30.06,West,261,3.0,3.0,48,0.00,,,0.00,Wunderground v.1.15,2013-03-21 19:31:00,
2013-03-21 15:36:00,30.4,12.5,30.06,WNW,290,8.0,8.0,47,0.00,,,0.00,Wunderground v.1.15,2013-03-21 19:36:00,
2013-03-21 15:41:00,30.2,13.3,30.06,WSW,258,3.0,3.0,49,0.00,,,0.00,Wunderground v.1.15,2013-03-21 19:41:00,
2013-03-21 15:46:00,30.2,13.3,30.06,West,265,2.0,6.0,49,0.00,,,0.00,Wunderground v.1.15,2013-03-21 19:46:00,
2013-03-21 15:51:00,30.6,13.2,30.06,WNW,285,2.0,4.0,48,0.00,,,0.00,Wunderground v.1.15,2013-03-21 19:51:00,
2013-03-21 15:56:00,30.7,13.3,30.06,NW,321,2.0,7.0,48,0.00,,,0.00,Wunderground v.1.15,2013-03-21 19:56:00,
2013-03-21 16:01:00,30.6,12.7,30.06,WNW,298,2.0,6.0,47,0.00,,,0.00,Wunderground v.1.15,2013-03-21 20:01:00,
2013-03-21 16:06:00,30.4,13.5,30.06,NNE,22,6.0,8.0,49,0.00,,,0.00,Wunderground v.1.15,2013-03-21 20:06:00,
2013-03-21 16:11:00,30.5,14.0,30.06,WSW,245,3.0,4.0,50,0.00,,,0.00,Wunderground v.1.15,2013-03-21 20:11:00,
2013-03-21 16:16:00,31.2,14.2,30.06,SSW,207,2.0,5.0,49,0.00,,,0.00,Wunderground v.1.15,2013-03-21 20:16:00,
2013-03-21 16:21:00,32.3,14.8,30.05,WNW,290,1.0,7.0,48,0.00,,,0.00,Wunderground v.1.15,2013-03-21 20:21:00,
2013-03-21 16:26:00,31.9,14.4,30.06,WSW,249,5.0,9.0,48,0.00,,,0.00,Wunderground v.1.15,2013-03-21 20:26:00,
2013-03-21 16:32:00,32.2,15.2,30.05,West,268,4.0,7.0,49,0.00,,,0.00,Wunderground v.1.15,2013-03-21 20:32:00,
2013-03-21 16:37:00,31.9,15.3,30.06,WSW,258,0.0,7.0,50,0.00,,,0.00,Wunderground v.1.15,2013-03-21 20:37:00,
2013-03-21 16:42:00,31.8,14.8,30.05,NW,314,0.0,3.0,49,0.00,,,0.00,Wunderground v.1.15,2013-03-21 20:42:00,
2013-03-21 16:47:00,31.2,13.8,30.05,NE,41,0.0,8.0,48,0.00,,,0.00,Wunderground v.1.15,2013-03-21 20:47:00,
2013-03-21 16:53:00,31.0,14.0,30.05,WNW,293,1.0,4.0,49,0.00,,,0.00,Wunderground v.1.15,2013-03-21 20:53:00,
2013-03-21 16:58:00,31.0,13.6,30.05,North,360,2.0,7.0,48,0.00,,,0.00,Wunderground v.1.15,2013-03-21 20:58:00,
2013-03-21 17:03:00,30.9,14.4,30.05,WNW,284,3.0,4.0,50,0.00,,,0.00,Wunderground v.1.15,2013-03-21 21:03:00,
2013-03-21 17:08:00,30.9,13.5,30.05,West,280,4.0,7.0,48,0.00,,,0.00,Wunderground v.1.15,2013-03-21 21:08:00,
2013-03-21 17:13:00,30.6,13.2,30.05,NNW,344,3.0,8.0,48,0.00,,,0.00,Wunderground v.1.15,2013-03-21 21:13:00,
2013-03-21 17:18:00,31.2,14.2,30.05,WNW,298,2.0,8.0,49,0.00,,,0.00,Wunderground v.1.15,2013-03-21 21:18:00,
2013-03-21 17:23:00,31.4,14.9,30.06,NW,313,3.0,3.0,50,0.00,,,0.00,Wunderground v.1.15,2013-03-21 21:23:00,
2013-03-21 17:28:00,31.1,13.7,30.05,NNE,19,2.0,6.0,48,0.00,,,0.00,Wunderground v.1.15,2013-03-21 21:28:00,
2013-03-21 17:33:00,30.8,13.9,30.06,WNW,286,6.0,7.0,49,0.00,,,0.00,Wunderground v.1.15,2013-03-21 21:33:00,
2013-03-21 17:38:00,30.8,14.3,30.05,West,279,4.0,7.0,50,0.00,,,0.00,Wunderground v.1.15,2013-03-21 21:38:00,
2013-03-21 17:43:00,31.1,14.6,30.05,WSW,242,4.0,4.0,50,0.00,,,0.00,Wunderground v.1.15,2013-03-21 21:43:00,
2013-03-21 17:48:00,31.0,14.0,30.05,West,268,0.0,5.0,49,0.00,,,0.00,Wunderground v.1.15,2013-03-21 21:48:00,
2013-03-21 17:53:00,31.0,13.6,30.05,West,278,2.0,4.0,48,0.00,,,0.00,Wunderground v.1.15,2013-03-21 21:53:00,
2013-03-21 17:58:00,30.9,14.0,30.05,West,278,1.0,4.0,49,0.00,,,0.00,Wunderground v.1.15,2013-03-21 21:58:00,
2013-03-21 18:03:00,30.8,14.3,30.06,West,271,4.0,7.0,50,0.00,,,0.00,Wunderground v.1.15,2013-03-21 22:03:00,
2013-03-21 18:08:00,30.6,13.7,30.06,NW,313,0.0,7.0,49,0.00,,,0.00,Wunderground v.1.15,2013-03-21 22:08:00,
2013-03-21 18:14:00,30.7,14.2,30.06,NW,326,2.0,8.0,50,0.00,,,0.00,Wunderground v.1.15,2013-03-21 22:14:00,
2013-03-21 18:19:00,30.8,14.3,30.05,West,262,2.0,8.0,50,0.00,,,0.00,Wunderground v.1.15,2013-03-21 22:19:00,
2013-03-21 18:24:00,30.7,13.8,30.06,NE,37,0.0,4.0,49,0.00,,,0.00,Wunderground v.1.15,2013-03-21 22:24:00,
2013-03-21 18:29:00,30.7,13.8,30.05,North,5,3.0,4.0,49,0.00,,,0.00,Wunderground v.1.15,2013-03-21 22:29:00,
2013-03-21 18:34:00,30.6,13.7,30.05,North,5,5.0,6.0,49,0.00,,,0.00,Wunderground v.1.15,2013-03-21 22:34:00,
2013-03-21 18:39:00,30.6,14.1,30.05,North,355,2.0,6.0,50,0.00,,,0.00,Wunderground v.1.15,2013-03-21 22:39:00,
2013-03-21 18:44:00,30.4,13.5,30.05,West,279,2.0,4.0,49,0.00,,,0.00,Wunderground v.1.15,2013-03-21 22:44:00,
2013-03-21 18:49:00,30.3,13.9,30.05,North,360,4.0,5.0,50,0.00,,,0.00,Wunderground v.1.15,2013-03-21 22:49:00,
2013-03-21 18:54:00,30.3,13.9,30.05,NNE,25,3.0,3.0,50,0.00,,,0.00,Wunderground v.1.15,2013-03-21 22:54:00,
2013-03-21 18:59:00,30.2,13.8,30.05,NNW,344,2.0,3.0,50,0.00,,,0.00,Wunderground v.1.15,2013-03-21 22:59:00,
2013-03-21 19:04:00,30.6,13.7,30.05,NE,37,3.0,7.0,49,0.00,,,0.00,Wunderground v.1.15,2013-03-21 23:04:00,
2013-03-21 19:09:00,30.8,13.9,30.05,West,281,3.0,7.0,49,0.00,,,0.00,Wunderground v.1.15,2013-03-21 23:09:00,
2013-03-21 19:14:00,30.8,14.3,30.06,NE,39,2.0,4.0,50,0.00,,,0.00,Wunderground v.1.15,2013-03-21 23:14:00,
2013-03-21 19:19:00,30.3,14.3,30.06,NNE,25,2.0,5.0,51,0.00,,,0.00,Wunderground v.1.15,2013-03-21 23:19:00,
2013-03-21 19:24:00,30.1,13.7,30.06,NE,48,2.0,4.0,50,0.00,,,0.00,Wunderground v.1.15,2013-03-21 23:24:00,
2013-03-21 19:29:00,30.0,14.0,30.06,NE,36,2.0,5.0,51,0.00,,,0.00,Wunderground v.1.15,2013-03-21 23:29:00,
2013-03-21 19:34:00,29.9,13.9,30.06,NE,36,1.0,3.0,51,0.00,,,0.00,Wunderground v.1.15,2013-03-21 23:34:00,
2013-03-21 19:39:00,29.7,13.8,30.06,NE,36,0.0,3.0,51,0.00,,,0.00,Wunderground v.1.15,2013-03-21 23:39:00,
2013-03-21 19:44:00,29.6,13.7,30.06,NE,36,0.0,3.0,51,0.00,,,0.00,Wunderground v.1.15,2013-03-21 23:44:00,
2013-03-21 19:49:00,29.5,14.0,30.07,NE,36,2.0,3.0,52,0.00,,,0.00,Wunderground v.1.15,2013-03-21 23:49:00,
2013-03-21 19:54:00,29.3,13.4,30.07,WNW,292,0.0,5.0,51,0.00,,,0.00,Wunderground v.1.15,2013-03-21 23:54:00,
2013-03-21 19:59:00,29.2,13.3,30.07,West,279,0.0,5.0,51,0.00,,,0.00,Wunderground v.1.15,2013-03-21 23:59:00,
2013-03-21 20:04:00,29.1,13.6,30.07,NNW,347,0.0,4.0,52,0.00,,,0.00,Wunderground v.1.15,2013-03-22 00:04:00,
2013-03-21 20:09:00,29.0,14.0,30.07,NNW,347,0.0,4.0,53,0.00,,,0.00,Wunderground v.1.15,2013-03-22 00:09:00,
2013-03-21 20:14:00,29.0,14.0,30.07,NNW,347,0.0,1.0,53,0.00,,,0.00,Wunderground v.1.15,2013-03-22 00:14:00,
2013-03-21 20:19:00,28.9,13.9,30.07,NNW,347,1.0,2.0,53,0.00,,,0.00,Wunderground v.1.15,2013-03-22 00:19:00,
2013-03-21 20:24:00,28.8,13.8,30.07,NNW,347,0.0,2.0,53,0.00,,,0.00,Wunderground v.1.15,2013-03-22 00:24:00,
2013-03-21 20:29:00,28.7,13.7,30.07,NNW,346,1.0,2.0,53,0.00,,,0.00,Wunderground v.1.15,2013-03-22 00:29:00,
2013-03-21 20:34:00,28.7,14.1,30.07,North,360,0.0,3.0,54,0.00,,,0.00,Wunderground v.1.15,2013-03-22 00:34:00,
2013-03-21 20:39:00,28.7,14.1,30.08,North,360,0.0,3.0,54,0.00,,,0.00,Wunderground v.1.15,2013-03-22 00:39:00,
2013-03-21 20:44:00,28.7,14.1,30.08,NW,311,0.0,3.0,54,0.00,,,0.00,Wunderground v.1.15,2013-03-22 00:44:00,
2013-03-21 20:50:00,28.6,14.0,30.08,NW,311,0.0,0.0,54,0.00,,,0.00,Wunderground v.1.15,2013-03-22 00:50:00,
2013-03-21 20:55:00,28.6,14.5,30.08,NW,311,1.0,2.0,55,0.00,,,0.00,Wunderground v.1.15,2013-03-22 00:55:00,
2013-03-21 21:00:00,28.5,14.4,30.08,WNW,292,0.0,1.0,55,0.00,,,0.00,Wunderground v.1.15,2013-03-22 01:00:00,
2013-03-21 21:06:00,28.5,14.4,30.08,WNW,284,0.0,4.0,55,0.00,,,0.00,Wunderground v.1.15,2013-03-22 01:06:00,
2013-03-21 21:11:00,28.4,14.3,30.08,WNW,284,0.0,1.0,55,0.00,,,0.00,Wunderground v.1.15,2013-03-22 01:11:00,
2013-03-21 21:16:00,28.3,14.2,30.08,WNW,284,0.0,1.0,55,0.00,,,0.00,Wunderground v.1.15,2013-03-22 01:16:00,
2013-03-21 21:21:00,28.1,14.4,30.08,WNW,284,0.0,1.0,56,0.00,,,0.00,Wunderground v.1.15,2013-03-22 01:21:00,
2013-03-21 21:26:00,28.0,13.9,30.08,WNW,284,0.0,1.0,55,0.00,,,0.00,Wunderground v.1.15,2013-03-22 01:26:00,
2013-03-21 21:31:00,27.9,14.2,30.09,WNW,284,0.0,0.0,56,0.00,,,0.00,Wunderground v.1.15,2013-03-22 01:31:00,
2013-03-21 21:36:00,27.7,14.0,30.09,WNW,284,0.0,0.0,56,0.00,,,0.00,Wunderground v.1.15,2013-03-22 01:36:00,
2013-03-21 21:42:00,27.5,14.2,30.09,WNW,284,0.0,0.0,57,0.00,,,0.00,Wunderground v.1.15,2013-03-22 01:42:00,
2013-03-21 21:47:00,27.3,14.1,30.09,WNW,284,0.0,0.0,57,0.00,,,0.00,Wunderground v.1.15,2013-03-22 01:47:00,
2013-03-21 21:52:00,27.2,14.4,30.09,WNW,284,0.0,0.0,58,0.00,,,0.00,Wunderground v.1.15,2013-03-22 01:52:00,
2013-03-21 21:57:00,27.0,14.2,30.09,WNW,284,0.0,0.0,58,0.00,,,0.00,Wunderground v.1.15,2013-03-22 01:57:00,
2013-03-21 22:02:00,26.8,14.4,30.09,WNW,284,0.0,0.0,59,0.00,,,0.00,Wunderground v.1.15,2013-03-22 02:02:00,
2013-03-21 22:07:00,26.6,14.2,30.09,WNW,284,0.0,0.0,59,0.00,,,0.00,Wunderground v.1.15,2013-03-22 02:07:00,
2013-03-21 22:12:00,26.5,14.1,30.09,WNW,284,0.0,0.0,59,0.00,,,0.00,Wunderground v.1.15,2013-03-22 02:12:00,
2013-03-21 22:17:00,26.4,14.0,30.09,WNW,284,0.0,0.0,59,0.00,,,0.00,Wunderground v.1.15,2013-03-22 02:17:00,
2013-03-21 22:23:00,26.3,14.3,30.09,WNW,284,0.0,0.0,60,0.00,,,0.00,Wunderground v.1.15,2013-03-22 02:23:00,
2013-03-21 22:28:00,26.1,14.1,30.09,WNW,284,0.0,0.0,60,0.00,,,0.00,Wunderground v.1.15,2013-03-22 02:28:00,
2013-03-21 22:33:00,26.0,14.0,30.09,WNW,284,0.0,0.0,60,0.00,,,0.00,Wunderground v.1.15,2013-03-22 02:33:00,
2013-03-21 22:38:00,25.9,13.9,30.09,WNW,284,0.0,0.0,60,0.00,,,0.00,Wunderground v.1.15,2013-03-22 02:38:00,
2013-03-21 22:43:00,25.7,13.7,30.09,WNW,284,0.0,0.0,60,0.00,,,0.00,Wunderground v.1.15,2013-03-22 02:43:00,
2013-03-21 22:49:00,25.6,14.0,30.09,WNW,284,0.0,0.0,61,0.00,,,0.00,Wunderground v.1.15,2013-03-22 02:49:00,
2013-03-21 22:54:00,25.5,13.9,30.09,WNW,284,0.0,0.0,61,0.00,,,0.00,Wunderground v.1.15,2013-03-22 02:54:00,
2013-03-21 22:59:00,25.4,13.8,30.09,WNW,284,0.0,0.0,61,0.00,,,0.00,Wunderground v.1.15,2013-03-22 02:59:00,
2013-03-21 23:04:00,25.2,14.0,30.09,WNW,284,0.0,0.0,62,0.00,,,0.00,Wunderground v.1.15,2013-03-22 03:04:00,
2013-03-21 23:09:00,25.2,14.0,30.09,WNW,284,0.0,0.0,62,0.00,,,0.00,Wunderground v.1.15,2013-03-22 03:09:00,
2013-03-21 23:14:00,25.1,14.3,30.09,WNW,284,0.0,0.0,63,0.00,,,0.00,Wunderground v.1.15,2013-03-22 03:14:00,
2013-03-21 23:19:00,25.0,14.2,30.09,WNW,284,0.0,0.0,63,0.00,,,0.00,Wunderground v.1.15,2013-03-22 03:19:00,
2013-03-21 23:24:00,24.9,14.1,30.09,WNW,284,0.0,0.0,63,0.00,,,0.00,Wunderground v.1.15,2013-03-22 03:24:00,
2013-03-21 23:29:00,24.8,14.3,30.09,WNW,284,0.0,0.0,64,0.00,,,0.00,Wunderground v.1.15,2013-03-22 03:29:00,
2013-03-21 23:34:00,24.6,14.1,30.09,WNW,284,0.0,0.0,64,0.00,,,0.00,Wunderground v.1.15,2013-03-22 03:34:00,
2013-03-21 23:39:00,24.4,14.3,30.09,WNW,284,0.0,0.0,65,0.00,,,0.00,Wunderground v.1.15,2013-03-22 03:39:00,
2013-03-21 23:44:00,24.2,14.5,30.09,WNW,284,0.0,0.0,66,0.00,,,0.00,Wunderground v.1.15,2013-03-22 03:44:00,
2013-03-21 23:49:00,24.0,14.3,30.09,WNW,284,0.0,0.0,66,0.00,,,0.00,Wunderground v.1.15,2013-03-22 03:49:00,
2013-03-21 23:54:00,23.8,14.1,30.08,WNW,284,0.0,0.0,66,0.00,,,0.00,Wunderground v.1.15,2013-03-22 03:54:00,
2013-03-21 23:59:00,23.6,13.9,30.09,WNW,284,0.0,0.0,66,0.00,,,0.00,Wunderground v.1.15,2013-03-22 03:59:00,